Regional Weather Roundup
Issued by NWS

Home | Current Version | Previous Version | Text Only | Print | Product List | Glossary Off
Versions: 1 2 3 4 5 6 7 8 9 10 11 12 13 14 15 16 17 18 19 20 21 22 23 24 25 26 27 28 29 30 31 32 33 34 35 36 37 38 39 40 41 42 43 44 45 46 47 48 49

000
ASUS45 KSLC 031410
RWRUT

UTAH REGIONAL WEATHER ROUNDUP
NATIONAL WEATHER SERVICE SALT LAKE CITY UT
700 AM MST TUE MAR 03 2015

UTZ001>011-023>025-031500-

NORTHERN UTAH

CITY           SKY/WX    TMP DP  RH WIND       PRES   REMARKS
BRIGHAM CITY   CLOUDY    32  31  96 W5        29.79S WCI  28
HILL AFB       LGT SNOW  32  32 100 S10       29.76F FOG     WCI  24
LOGAN          CLOUDY    32  29  88 CALM      29.77S
OGDEN          LGT SNOW  32  32 100 W5        29.76F VSB 3/4 WCI  27
PROVO AIRPORT  MOCLDY    32  28  86 S7        29.80S WCI  26
SALT LAKE CITY CLOUDY    36  31  82 S3        29.77F
VERNAL         CLOUDY    26  20  77 W6        29.78S WCI  19
WENDOVER       MOCLDY    34  25  69 NW9       29.81S WCI  26
HEBER CITY     FLURRIES  32  27  80 S5        29.74F WCI  27
WEST JORDAN    CLOUDY    34  34 100 S9        29.78F WCI  26

$$

UTZ012>022-026-027-031500-

SOUTHERN/CENTRAL UTAH

CITY           SKY/WX    TMP DP  RH WIND       PRES   REMARKS
BLANDING       MOCLDY    28  28  98 E3        29.95S
BRYCE CANYON   MOCLDY     4   2  91 S5        29.83F WCI  -5
CEDAR CITY     MOCLDY    26  24  92 S6        29.84F WCI  19
DELTA          MOCLDY    31  28  90 S9        29.81S WCI  23
HANKSVILLE     CLEAR     30  27  86 CALM      29.86S
MILFORD        CLEAR     28  24  85 S15       29.83F WCI  16
MOAB/CYNLANDS  CLEAR     32  26  78 CALM      29.81F
PRICE          CLEAR     21  17  84 NE8       29.78F WCI  11
ST GEORGE      CLOUDY    41  36  81 NE6       29.94S
KANAB          CLOUDY    32  32 100 CALM      29.93S

$$

REGIONAL REPORTS     COLORADO/ARIZONA

CITY           SKY/WX    TMP DP  RH WIND       PRES   REMARKS
CRAIG, CO      CLOUDY    27  25  92 SW8       29.78S FOG     WCI  19
GRAND JUNCTION MOCLDY    31  28  89 NE7       29.81F WCI  24
RIFLE          MOCLDY    34  26  72 VRB3      29.80S
MONTROSE       CLOUDY    33  23  66 E6        29.85S WCI  28
CORTEZ         CLOUDY    31  28  89 NE5       29.89F WCI  26
PAGE, AZ       NOT AVBL
GRAND CANYON   FOG       24  23  96 CALM      29.90S VSB 1/4
KINGMAN        CLEAR     31  28  89 CALM      29.92S
FLAGSTAFF      NOT AVBL

$$

REGIONAL REPORTS    NEVADA/IDAHO/WYOMING

CITY           SKY/WX    TMP DP  RH WIND       PRES   REMARKS
LAS VEGAS, NV  PTCLDY    42  35  76 S8        29.88F
ELY            LGT SNOW  27  25  92 N8        29.83F FOG     WCI  19
ELKO           MOCLDY    26  19  74 W10       29.88R WCI  16
POCATELLO, ID  LGT SNOW  22  21  96 NE13      29.86R VSB 3/4 WCI  10
BURLEY         CLOUDY    29  19  66 W15G31    29.82R WCI  18
EVANSTON, WY   SNOW      24  22  91 SW9       29.69F VSB 1/2 WCI  14
ROCK SPRINGS   FLURRIES  16  13  88 E13       29.75S WCI   2
KEMMERER       MOCLDY    21  19  93 SW5       29.68F WCI  15

$$



USA.gov is the U.S. government's official web portal to all federal, state and local government web resources and services.